Location: Cosy Dell
(34.2789°N, 117.4537°W)
Time: 21:05:22
(UTC+00:00)

Cosmos 2084 - Pass Details

Date: 14 July 2020
Orbit: 571 x 612 km, 62.8° (Epoch: 13 August)

Event Time Altitude Azimuth Distance (km) Brightness Sun altitude
Rises 03:32:20 0° 336° (NNW) 2,877 8.0 -6.1°
Reaches altitude 10° 03:34:44 10° 344° (NNW) 1,968 6.9 -6.6°
Maximum altitude 03:38:55 39° 54° (NE) 923 4.3 -7.3°
Enters shadow 03:43:02 10° 123° (ESE) 1,942 5.4 -8.0°
